LOCATION_NAME,SAMPLE COLLECTION TIME,DOSE EQUIVALENT RATE (nSv/h),GAMMA COUNT RATE R02 (CPM),GAMMA COUNT RATE R03 (CPM),GAMMA COUNT RATE R04 (CPM),GAMMA COUNT RATE R05 (CPM),GAMMA COUNT RATE R06 (CPM),GAMMA COUNT RATE R07 (CPM),GAMMA COUNT RATE R08 (CPM),GAMMA COUNT RATE R09 (CPM),STATUS
KS: WICHITA,01/01/2013 00:42:00,,2653.00,1575.00,430.00,249.00,143.00,182.00,114.00,38.00,APPROVED
KS: WICHITA,01/01/2013 01:42:00,,2721.00,1544.00,412.00,234.00,135.00,174.00,107.00,37.00,APPROVED
KS: WICHITA,01/01/2013 02:42:00,,2767.00,1576.00,414.00,236.00,136.00,172.00,107.00,37.00,APPROVED
KS: WICHITA,01/01/2013 03:42:00,,2812.00,1605.00,423.00,246.00,140.00,173.00,110.00,37.00,APPROVED
KS: WICHITA,01/01/2013 04:43:00,,2830.00,1621.00,424.00,248.00,140.00,174.00,112.00,40.00,APPROVED
KS: WICHITA,01/01/2013 05:43:00,,2771.00,1603.00,417.00,246.00,137.00,179.00,111.00,39.00,APPROVED
KS: WICHITA,01/01/2013 06:43:00,,2708.00,1584.00,414.00,250.00,140.00,175.00,114.00,40.00,APPROVED
KS: WICHITA,01/01/2013 07:43:00,,2590.00,1504.00,397.00,235.00,135.00,167.00,106.00,38.00,APPROVED
KS: WICHITA,01/01/2013 08:43:00,,2494.00,1426.00,378.00,219.00,126.00,156.00,101.00,37.00,APPROVED
KS: WICHITA,01/01/2013 09:44:00,,2465.00,1392.00,374.00,208.00,127.00,155.00,99.00,36.00,APPROVED
KS: WICHITA,01/01/2013 10:44:00,,2460.00,1379.00,365.00,206.00,124.00,152.00,100.00,35.00,APPROVED
KS: WICHITA,01/01/2013 11:44:00,,2498.00,1421.00,377.00,218.00,128.00,159.00,100.00,35.00,APPROVED
KS: WICHITA,01/01/2013 12:44:00,,2463.00,1406.00,373.00,216.00,128.00,156.00,102.00,36.00,APPROVED
KS: WICHITA,01/01/2013 13:44:00,,2383.00,1350.00,359.00,205.00,122.00,151.00,101.00,35.00,APPROVED
KS: WICHITA,01/01/2013 14:45:00,,2415.00,1368.00,358.00,209.00,124.00,155.00,100.00,34.00,APPROVED
KS: WICHITA,01/01/2013 15:45:00,,2636.00,1557.00,406.00,248.00,138.00,174.00,111.00,38.00,APPROVED
KS: WICHITA,01/01/2013 16:45:00,,2689.00,1602.00,424.00,261.00,140.00,179.00,114.00,40.00,APPROVED
KS: WICHITA,01/01/2013 17:45:00,,2561.00,1492.00,402.00,239.00,133.00,171.00,107.00,38.00,APPROVED
KS: WICHITA,01/01/2013 18:45:00,,2445.00,1398.00,371.00,218.00,125.00,159.00,103.00,35.00,APPROVED
KS: WICHITA,01/01/2013 19:46:00,,2372.00,1329.00,353.00,202.00,119.00,146.00,97.00,34.00,APPROVED
KS: WICHITA,01/01/2013 20:46:00,,2359.00,1318.00,355.00,198.00,119.00,149.00,97.00,34.00,APPROVED
KS: WICHITA,01/01/2013 21:46:00,,2348.00,1306.00,353.00,197.00,118.00,145.00,98.00,34.00,APPROVED
KS: WICHITA,01/01/2013 22:46:00,,2337.00,1310.00,353.00,196.00,119.00,149.00,96.00,35.00,APPROVED
KS: WICHITA,01/01/2013 23:47:00,,2345.00,1307.00,350.00,197.00,118.00,147.00,97.00,34.00,APPROVED
KS: WICHITA,01/02/2013 00:47:00,,2321.00,1297.00,347.00,193.00,117.00,143.00,96.00,34.00,APPROVED
KS: WICHITA,01/02/2013 01:47:00,,2333.00,1301.00,350.00,193.00,118.00,144.00,96.00,33.00,APPROVED
KS: WICHITA,01/02/2013 02:47:00,,2351.00,1304.00,350.00,195.00,118.00,147.00,96.00,34.00,APPROVED
KS: WICHITA,01/02/2013 03:47:00,,2344.00,1315.00,347.00,200.00,119.00,146.00,98.00,34.00,APPROVED
KS: WICHITA,01/02/2013 04:48:00,,2345.00,1335.00,348.00,200.00,123.00,148.00,99.00,36.00,APPROVED
KS: WICHITA,01/02/2013 05:48:00,,2360.00,1358.00,357.00,206.00,121.00,151.00,99.00,36.00,APPROVED
KS: WICHITA,01/02/2013 06:48:00,,2371.00,1341.00,356.00,208.00,121.00,151.00,100.00,35.00,APPROVED
KS: WICHITA,01/02/2013 07:48:00,,2389.00,1349.00,359.00,206.00,123.00,150.00,99.00,37.00,APPROVED
KS: WICHITA,01/02/2013 08:48:00,,2387.00,1368.00,360.00,211.00,125.00,155.00,99.00,35.00,APPROVED
KS: WICHITA,01/02/2013 09:49:00,,2441.00,1412.00,369.00,218.00,127.00,154.00,104.00,36.00,APPROVED
KS: WICHITA,01/02/2013 10:49:00,,2454.00,1415.00,373.00,217.00,127.00,158.00,102.00,37.00,APPROVED
KS: WICHITA,01/02/2013 11:49:00,,2448.00,1411.00,367.00,218.00,128.00,155.00,103.00,36.00,APPROVED
KS: WICHITA,01/02/2013 12:49:00,,2490.00,1437.00,374.00,227.00,130.00,162.00,103.00,36.00,APPROVED
KS: WICHITA,01/02/2013 13:49:00,,2536.00,1483.00,385.00,232.00,132.00,165.00,105.00,37.00,APPROVED
KS: WICHITA,01/02/2013 14:50:00,,2547.00,1502.00,389.00,237.00,130.00,164.00,104.00,39.00,APPROVED
KS: WICHITA,01/02/2013 15:50:00,,2511.00,1469.00,382.00,226.00,129.00,160.00,103.00,38.00,APPROVED
KS: WICHITA,01/02/2013 16:50:00,,2475.00,1419.00,378.00,220.00,122.00,153.00,98.00,36.00,APPROVED
KS: WICHITA,01/02/2013 17:50:00,,2492.00,1432.00,375.00,213.00,125.00,158.00,100.00,36.00,APPROVED
KS: WICHITA,01/02/2013 18:50:00,,2503.00,1433.00,380.00,218.00,128.00,155.00,101.00,36.00,APPROVED
KS: WICHITA,01/02/2013 19:51:00,,2495.00,1431.00,385.00,216.00,125.00,158.00,101.00,35.00,APPROVED
KS: WICHITA,01/02/2013 20:51:00,,2459.00,1401.00,378.00,210.00,125.00,153.00,96.00,34.00,APPROVED
KS: WICHITA,01/02/2013 21:51:00,,2427.00,1380.00,373.00,209.00,122.00,153.00,99.00,35.00,APPROVED
KS: WICHITA,01/02/2013 22:51:00,,2418.00,1372.00,372.00,204.00,126.00,153.00,95.00,35.00,APPROVED
KS: WICHITA,01/02/2013 23:51:00,,2471.00,1393.00,379.00,212.00,126.00,156.00,100.00,34.00,APPROVED
KS: WICHITA,01/03/2013 00:52:00,,2511.00,1419.00,377.00,215.00,128.00,156.00,103.00,35.00,APPROVED
KS: WICHITA,01/03/2013 01:52:00,,2467.00,1392.00,374.00,212.00,126.00,154.00,101.00,35.00,APPROVED
KS: WICHITA,01/03/2013 02:52:00,,2449.00,1377.00,372.00,208.00,126.00,156.00,102.00,35.00,APPROVED
KS: WICHITA,01/03/2013 03:52:00,,2438.00,1393.00,370.00,216.00,125.00,157.00,100.00,36.00,APPROVED
KS: WICHITA,01/03/2013 04:52:00,,2459.00,1397.00,372.00,216.00,127.00,153.00,102.00,36.00,APPROVED
KS: WICHITA,01/03/2013 05:53:00,,2473.00,1413.00,379.00,217.00,128.00,158.00,101.00,35.00,APPROVED
KS: WICHITA,01/03/2013 06:53:00,,2476.00,1420.00,373.00,215.00,128.00,158.00,101.00,35.00,APPROVED
KS: WICHITA,01/03/2013 07:53:00,,2460.00,1387.00,368.00,214.00,123.00,155.00,99.00,35.00,APPROVED
KS: WICHITA,01/03/2013 08:53:00,,2419.00,1373.00,365.00,206.00,122.00,152.00,99.00,35.00,APPROVED
KS: WICHITA,01/03/2013 09:54:00,,2425.00,1371.00,364.00,209.00,122.00,157.00,101.00,35.00,APPROVED
KS: WICHITA,01/03/2013 10:54:00,,2445.00,1376.00,359.00,206.00,122.00,150.00,100.00,35.00,APPROVED
KS: WICHITA,01/03/2013 11:54:00,,2464.00,1392.00,371.00,211.00,124.00,157.00,102.00,35.00,APPROVED
KS: WICHITA,01/03/2013 12:54:00,,2503.00,1423.00,371.00,217.00,128.00,161.00,104.00,37.00,APPROVED
KS: WICHITA,01/03/2013 13:45:00,,2530.00,1440.00,376.00,217.00,127.00,160.00,102.00,37.00,APPROVED
KS: WICHITA,01/03/2013 14:52:00,,2412.00,1351.00,354.00,201.00,119.00,148.00,95.00,36.00,APPROVED
KS: WICHITA,01/03/2013 15:52:00,,2356.00,1341.00,353.00,203.00,118.00,146.00,93.00,34.00,APPROVED
KS: WICHITA,01/03/2013 16:52:00,,2334.00,1317.00,346.00,198.00,115.00,143.00,95.00,34.00,APPROVED
KS: WICHITA,01/03/2013 17:52:00,,2271.00,1275.00,340.00,192.00,116.00,138.00,92.00,32.00,APPROVED
KS: WICHITA,01/03/2013 18:53:00,,2204.00,1218.00,334.00,188.00,110.00,140.00,89.00,33.00,APPROVED
KS: WICHITA,01/03/2013 19:53:00,,2206.00,1228.00,334.00,184.00,116.00,139.00,91.00,33.00,APPROVED
KS: WICHITA,01/03/2013 20:53:00,,2161.00,1202.00,328.00,178.00,113.00,138.00,88.00,31.00,APPROVED
KS: WICHITA,01/03/2013 21:53:00,,2122.00,1165.00,324.00,178.00,111.00,134.00,88.00,32.00,APPROVED
KS: WICHITA,01/03/2013 22:54:00,,2121.00,1175.00,323.00,173.00,110.00,132.00,90.00,31.00,APPROVED
KS: WICHITA,01/03/2013 23:54:00,,2161.00,1190.00,325.00,175.00,112.00,136.00,91.00,31.00,APPROVED
KS: WICHITA,01/04/2013 00:54:00,,2207.00,1215.00,334.00,180.00,113.00,138.00,92.00,32.00,APPROVED
KS: WICHITA,01/04/2013 01:54:00,,2238.00,1245.00,339.00,186.00,115.00,140.00,93.00,32.00,APPROVED
KS: WICHITA,01/04/2013 02:54:00,,2274.00,1290.00,341.00,195.00,119.00,148.00,93.00,33.00,APPROVED
KS: WICHITA,01/04/2013 03:55:00,,2310.00,1309.00,352.00,195.00,118.00,148.00,99.00,35.00,APPROVED
KS: WICHITA,01/04/2013 04:55:00,,2343.00,1327.00,357.00,205.00,123.00,151.00,97.00,34.00,APPROVED
KS: WICHITA,01/04/2013 05:55:00,,2362.00,1344.00,357.00,207.00,124.00,151.00,98.00,34.00,APPROVED
KS: WICHITA,01/04/2013 06:55:00,,2397.00,1376.00,369.00,212.00,125.00,153.00,100.00,35.00,APPROVED
KS: WICHITA,01/04/2013 07:55:00,,2416.00,1383.00,365.00,214.00,124.00,156.00,101.00,35.00,APPROVED
KS: WICHITA,01/04/2013 08:56:00,,2464.00,1415.00,371.00,218.00,129.00,159.00,102.00,35.00,APPROVED
KS: WICHITA,01/04/2013 09:56:00,,2484.00,1447.00,375.00,225.00,131.00,162.00,104.00,38.00,APPROVED
KS: WICHITA,01/04/2013 10:56:00,,2451.00,1425.00,375.00,225.00,128.00,161.00,102.00,37.00,APPROVED
KS: WICHITA,01/04/2013 11:56:00,,2459.00,1440.00,378.00,225.00,129.00,162.00,107.00,36.00,APPROVED
KS: WICHITA,01/04/2013 12:56:00,,2481.00,1431.00,382.00,224.00,128.00,162.00,104.00,36.00,APPROVED
KS: WICHITA,01/04/2013 13:57:00,,2562.00,1502.00,386.00,232.00,130.00,168.00,105.00,38.00,APPROVED
KS: WICHITA,01/04/2013 14:57:00,,2522.00,1480.00,384.00,232.00,128.00,165.00,104.00,39.00,APPROVED
KS: WICHITA,01/04/2013 15:57:00,,2396.00,1401.00,363.00,215.00,124.00,154.00,97.00,35.00,APPROVED
KS: WICHITA,01/04/2013 16:57:00,,2327.00,1322.00,358.00,200.00,119.00,147.00,96.00,35.00,APPROVED
KS: WICHITA,01/04/2013 17:57:00,,2315.00,1310.00,353.00,197.00,117.00,145.00,95.00,33.00,APPROVED
KS: WICHITA,01/04/2013 18:58:00,,2304.00,1297.00,357.00,194.00,117.00,147.00,92.00,33.00,APPROVED
KS: WICHITA,01/04/2013 19:58:00,,2239.00,1256.00,351.00,187.00,116.00,144.00,90.00,33.00,APPROVED
KS: WICHITA,01/04/2013 20:58:00,,2188.00,1231.00,345.00,183.00,114.00,145.00,89.00,33.00,APPROVED
KS: WICHITA,01/04/2013 21:58:00,,2159.00,1205.00,341.00,181.00,113.00,139.00,86.00,33.00,APPROVED
KS: WICHITA,01/04/2013 22:58:00,,2171.00,1208.00,344.00,183.00,113.00,144.00,87.00,33.00,APPROVED
KS: WICHITA,01/04/2013 23:59:00,,2241.00,1247.00,349.00,182.00,116.00,142.00,92.00,33.00,APPROVED
KS: WICHITA,01/05/2013 00:59:00,,2271.00,1261.00,349.00,188.00,118.00,148.00,95.00,32.00,APPROVED
KS: WICHITA,01/05/2013 01:59:00,,2269.00,1259.00,342.00,189.00,117.00,144.00,96.00,33.00,APPROVED
KS: WICHITA,01/05/2013 02:59:00,,2314.00,1284.00,354.00,187.00,120.00,147.00,95.00,33.00,APPROVED
KS: WICHITA,01/05/2013 03:59:00,,2354.00,1313.00,357.00,197.00,119.00,148.00,98.00,34.00,APPROVED
KS: WICHITA,01/05/2013 05:00:00,,2381.00,1333.00,357.00,201.00,121.00,149.00,99.00,35.00,APPROVED
KS: WICHITA,01/05/2013 06:00:00,,2365.00,1331.00,355.00,200.00,122.00,150.00,98.00,34.00,APPROVED
KS: WICHITA,01/05/2013 07:00:00,,2347.00,1315.00,357.00,197.00,122.00,148.00,98.00,33.00,APPROVED
KS: WICHITA,01/05/2013 08:00:00,,2309.00,1292.00,351.00,196.00,119.00,147.00,94.00,32.00,APPROVED
KS: WICHITA,01/05/2013 09:01:00,,2311.00,1286.00,348.00,191.00,121.00,146.00,95.00,34.00,APPROVED
KS: WICHITA,01/05/2013 10:01:00,,2287.00,1265.00,351.00,192.00,116.00,149.00,95.00,32.00,APPROVED
KS: WICHITA,01/05/2013 11:01:00,,2297.00,1268.00,351.00,191.00,120.00,145.00,96.00,34.00,APPROVED
KS: WICHITA,01/05/2013 12:01:00,,2293.00,1265.00,343.00,190.00,120.00,142.00,95.00,32.00,APPROVED
KS: WICHITA,01/05/2013 13:01:00,,2282.00,1265.00,345.00,187.00,116.00,145.00,95.00,34.00,APPROVED
KS: WICHITA,01/05/2013 14:02:00,,2277.00,1263.00,343.00,190.00,117.00,144.00,93.00,32.00,APPROVED
KS: WICHITA,01/05/2013 15:02:00,,2272.00,1258.00,344.00,188.00,117.00,140.00,93.00,32.00,APPROVED
KS: WICHITA,01/05/2013 16:02:00,,2267.00,1268.00,347.00,187.00,118.00,143.00,95.00,32.00,APPROVED
KS: WICHITA,01/05/2013 17:02:00,,2281.00,1264.00,345.00,193.00,118.00,142.00,93.00,32.00,APPROVED
KS: WICHITA,01/05/2013 18:02:00,,2247.00,1253.00,343.00,184.00,116.00,144.00,92.00,33.00,APPROVED
KS: WICHITA,01/05/2013 19:03:00,,2211.00,1224.00,344.00,181.00,118.00,142.00,92.00,33.00,APPROVED
KS: WICHITA,01/05/2013 20:03:00,,2179.00,1199.00,343.00,179.00,116.00,145.00,90.00,32.00,APPROVED
KS: WICHITA,01/05/2013 21:03:00,,2144.00,1190.00,342.00,178.00,118.00,146.00,89.00,33.00,APPROVED
KS: WICHITA,01/05/2013 22:03:00,,2135.00,1182.00,344.00,175.00,116.00,146.00,83.00,31.00,APPROVED
KS: WICHITA,01/05/2013 23:03:00,,2176.00,1204.00,343.00,178.00,116.00,146.00,87.00,33.00,APPROVED
KS: WICHITA,01/06/2013 00:04:00,,2432.00,1365.00,378.00,199.00,125.00,151.00,97.00,34.00,APPROVED
KS: WICHITA,01/06/2013 01:04:00,,2622.00,1484.00,399.00,220.00,132.00,165.00,103.00,36.00,APPROVED
KS: WICHITA,01/06/2013 02:04:00,,2602.00,1479.00,395.00,224.00,132.00,164.00,105.00,37.00,APPROVED
KS: WICHITA,01/06/2013 03:04:00,,2555.00,1459.00,389.00,220.00,131.00,165.00,104.00,37.00,APPROVED
KS: WICHITA,01/06/2013 04:04:00,,2491.00,1410.00,379.00,216.00,129.00,157.00,102.00,36.00,APPROVED
KS: WICHITA,01/06/2013 05:05:00,,2465.00,1394.00,374.00,211.00,124.00,156.00,99.00,35.00,APPROVED
KS: WICHITA,01/06/2013 06:05:00,,2425.00,1370.00,368.00,208.00,126.00,156.00,101.00,35.00,APPROVED
KS: WICHITA,01/06/2013 07:05:00,,2402.00,1348.00,365.00,205.00,120.00,152.00,97.00,36.00,APPROVED
KS: WICHITA,01/06/2013 08:05:00,,2369.00,1329.00,354.00,203.00,122.00,149.00,98.00,35.00,APPROVED
KS: WICHITA,01/06/2013 09:05:00,,2334.00,1295.00,351.00,195.00,118.00,149.00,95.00,34.00,APPROVED
KS: WICHITA,01/06/2013 10:06:00,,2324.00,1305.00,350.00,195.00,117.00,146.00,96.00,34.00,APPROVED
KS: WICHITA,01/06/2013 11:06:00,,2321.00,1308.00,351.00,197.00,120.00,150.00,100.00,33.00,APPROVED
KS: WICHITA,01/06/2013 12:06:00,,2374.00,1328.00,359.00,200.00,123.00,149.00,99.00,33.00,APPROVED
KS: WICHITA,01/06/2013 13:06:00,,2362.00,1344.00,359.00,205.00,120.00,146.00,98.00,35.00,APPROVED
KS: WICHITA,01/06/2013 14:07:00,,2368.00,1344.00,360.00,207.00,123.00,154.00,99.00,34.00,APPROVED
KS: WICHITA,01/06/2013 15:07:00,,2389.00,1351.00,362.00,205.00,122.00,154.00,98.00,36.00,APPROVED
KS: WICHITA,01/06/2013 16:07:00,,2411.00,1368.00,361.00,205.00,122.00,153.00,99.00,34.00,APPROVED
KS: WICHITA,01/06/2013 17:07:00,,2345.00,1326.00,364.00,201.00,121.00,152.00,98.00,34.00,APPROVED
KS: WICHITA,01/06/2013 18:07:00,,2264.00,1268.00,361.00,189.00,122.00,149.00,94.00,34.00,APPROVED
KS: WICHITA,01/06/2013 19:08:00,,2187.00,1219.00,353.00,182.00,118.00,146.00,92.00,31.00,APPROVED
KS: WICHITA,01/06/2013 20:08:00,,2093.00,1163.00,340.00,176.00,114.00,145.00,83.00,33.00,APPROVED
KS: WICHITA,01/06/2013 21:08:00,,2023.00,1129.00,332.00,168.00,113.00,142.00,86.00,32.00,APPROVED
KS: WICHITA,01/06/2013 22:08:00,,1998.00,1120.00,333.00,169.00,112.00,140.00,83.00,31.00,APPROVED
KS: WICHITA,01/06/2013 23:08:00,,2038.00,1122.00,330.00,169.00,110.00,139.00,82.00,31.00,APPROVED
KS: WICHITA,01/07/2013 00:09:00,,2109.00,1162.00,333.00,170.00,113.00,140.00,88.00,32.00,APPROVED
KS: WICHITA,01/07/2013 01:09:00,,2203.00,1208.00,333.00,179.00,114.00,143.00,89.00,31.00,APPROVED
KS: WICHITA,01/07/2013 02:09:00,,2221.00,1231.00,341.00,187.00,115.00,144.00,93.00,33.00,APPROVED
KS: WICHITA,01/07/2013 03:09:00,,2241.00,1245.00,343.00,184.00,116.00,144.00,95.00,33.00,APPROVED
KS: WICHITA,01/07/2013 04:09:00,,2266.00,1269.00,346.00,187.00,115.00,144.00,94.00,33.00,APPROVED
KS: WICHITA,01/07/2013 05:10:00,,2293.00,1277.00,347.00,190.00,117.00,143.00,95.00,33.00,APPROVED
KS: WICHITA,01/07/2013 06:10:00,,2292.00,1283.00,351.00,193.00,119.00,148.00,96.00,35.00,APPROVED
KS: WICHITA,01/07/2013 07:10:00,,2294.00,1287.00,349.00,195.00,118.00,148.00,97.00,33.00,APPROVED
KS: WICHITA,01/07/2013 08:10:00,,2278.00,1273.00,347.00,191.00,121.00,143.00,95.00,32.00,APPROVED
KS: WICHITA,01/07/2013 09:10:00,,2283.00,1271.00,347.00,193.00,118.00,145.00,97.00,34.00,APPROVED
KS: WICHITA,01/07/2013 10:11:00,,2290.00,1271.00,347.00,191.00,118.00,144.00,98.00,33.00,APPROVED
KS: WICHITA,01/07/2013 11:11:00,,2278.00,1286.00,343.00,191.00,119.00,145.00,93.00,34.00,APPROVED
KS: WICHITA,01/07/2013 12:11:00,,2283.00,1267.00,347.00,192.00,118.00,145.00,95.00,32.00,APPROVED
KS: WICHITA,01/07/2013 13:11:00,,2302.00,1273.00,346.00,189.00,117.00,144.00,94.00,32.00,APPROVED
KS: WICHITA,01/07/2013 14:12:00,,2260.00,1265.00,345.00,191.00,117.00,142.00,94.00,33.00,APPROVED
KS: WICHITA,01/07/2013 15:12:00,,2222.00,1234.00,337.00,185.00,115.00,137.00,89.00,32.00,APPROVED
KS: WICHITA,01/07/2013 16:12:00,,2157.00,1200.00,327.00,181.00,110.00,136.00,86.00,30.00,APPROVED
KS: WICHITA,01/07/2013 17:12:00,,2153.00,1189.00,328.00,178.00,111.00,140.00,88.00,32.00,APPROVED
KS: WICHITA,01/07/2013 18:12:00,,2175.00,1205.00,335.00,181.00,112.00,138.00,87.00,31.00,APPROVED
KS: WICHITA,01/07/2013 19:13:00,,2126.00,1192.00,332.00,176.00,112.00,138.00,87.00,32.00,APPROVED
KS: WICHITA,01/07/2013 20:13:00,,2044.00,1134.00,327.00,168.00,109.00,136.00,85.00,32.00,APPROVED
KS: WICHITA,01/07/2013 21:13:00,,1983.00,1105.00,325.00,167.00,106.00,133.00,79.00,32.00,APPROVED
KS: WICHITA,01/07/2013 22:13:00,,2002.00,1105.00,323.00,168.00,108.00,140.00,83.00,31.00,APPROVED
KS: WICHITA,01/07/2013 23:13:00,,2032.00,1134.00,325.00,170.00,110.00,139.00,83.00,33.00,APPROVED
KS: WICHITA,01/08/2013 00:14:00,,2130.00,1179.00,338.00,179.00,113.00,142.00,87.00,31.00,APPROVED
KS: WICHITA,01/08/2013 01:14:00,,2174.00,1189.00,339.00,177.00,114.00,142.00,87.00,33.00,APPROVED
KS: WICHITA,01/08/2013 02:14:00,,2169.00,1202.00,346.00,179.00,114.00,140.00,89.00,32.00,APPROVED
KS: WICHITA,01/08/2013 03:14:00,,2201.00,1204.00,337.00,182.00,116.00,139.00,88.00,32.00,APPROVED
KS: WICHITA,01/08/2013 04:14:00,,2227.00,1222.00,338.00,179.00,115.00,142.00,92.00,31.00,APPROVED
KS: WICHITA,01/08/2013 05:15:00,,2228.00,1238.00,342.00,180.00,118.00,143.00,92.00,33.00,APPROVED
KS: WICHITA,01/08/2013 06:15:00,,2276.00,1255.00,346.00,186.00,119.00,145.00,94.00,32.00,APPROVED
KS: WICHITA,01/08/2013 07:15:00,,2299.00,1275.00,347.00,188.00,120.00,147.00,96.00,33.00,APPROVED
KS: WICHITA,01/08/2013 08:15:00,,2311.00,1279.00,353.00,194.00,119.00,148.00,94.00,34.00,APPROVED
KS: WICHITA,01/08/2013 09:15:00,,2334.00,1304.00,353.00,194.00,120.00,146.00,97.00,33.00,APPROVED
KS: WICHITA,01/08/2013 10:16:00,,2345.00,1301.00,352.00,196.00,120.00,149.00,97.00,33.00,APPROVED
KS: WICHITA,01/08/2013 11:16:00,,2340.00,1302.00,352.00,193.00,118.00,145.00,95.00,35.00,APPROVED
KS: WICHITA,01/08/2013 12:16:00,,2331.00,1298.00,352.00,195.00,122.00,147.00,97.00,34.00,APPROVED
KS: WICHITA,01/08/2013 13:16:00,,2329.00,1288.00,353.00,192.00,119.00,145.00,95.00,34.00,APPROVED
KS: WICHITA,01/08/2013 14:16:00,,2253.00,1244.00,340.00,186.00,113.00,139.00,88.00,33.00,APPROVED
KS: WICHITA,01/08/2013 15:24:00,,2168.00,1181.00,319.00,171.00,107.00,131.00,87.00,31.00,APPROVED
KS: WICHITA,01/08/2013 16:24:00,,2139.00,1161.00,322.00,170.00,109.00,133.00,86.00,31.00,APPROVED
KS: WICHITA,01/08/2013 17:24:00,,2115.00,1162.00,323.00,168.00,107.00,131.00,83.00,32.00,APPROVED
KS: WICHITA,01/08/2013 18:25:00,,2082.00,1144.00,326.00,168.00,109.00,137.00,79.00,31.00,APPROVED
KS: WICHITA,01/08/2013 19:25:00,,2061.00,1135.00,326.00,166.00,108.00,138.00,81.00,31.00,APPROVED
KS: WICHITA,01/08/2013 20:25:00,,2011.00,1115.00,325.00,168.00,110.00,132.00,82.00,32.00,APPROVED
KS: WICHITA,01/08/2013 21:25:00,,1933.00,1086.00,319.00,166.00,110.00,134.00,85.00,32.00,APPROVED
KS: WICHITA,01/08/2013 22:25:00,,1910.00,1070.00,314.00,165.00,108.00,131.00,86.00,32.00,APPROVED
KS: WICHITA,01/08/2013 23:26:00,,1997.00,1114.00,328.00,171.00,112.00,135.00,87.00,32.00,APPROVED
KS: WICHITA,01/09/2013 00:26:00,,2087.00,1154.00,337.00,175.00,112.00,140.00,88.00,32.00,APPROVED
KS: WICHITA,01/09/2013 01:26:00,,2147.00,1180.00,337.00,174.00,118.00,142.00,87.00,32.00,APPROVED
KS: WICHITA,01/09/2013 02:26:00,,2180.00,1200.00,338.00,177.00,115.00,143.00,87.00,33.00,APPROVED
KS: WICHITA,01/09/2013 03:27:00,,2232.00,1225.00,346.00,181.00,119.00,144.00,89.00,32.00,APPROVED
KS: WICHITA,01/09/2013 04:27:00,,2294.00,1273.00,352.00,192.00,115.00,146.00,93.00,33.00,APPROVED
KS: WICHITA,01/09/2013 05:27:00,,2500.00,1415.00,385.00,211.00,127.00,154.00,102.00,34.00,APPROVED
KS: WICHITA,01/09/2013 06:27:00,,2595.00,1458.00,394.00,219.00,129.00,162.00,104.00,36.00,APPROVED
KS: WICHITA,01/09/2013 07:27:00,,2602.00,1483.00,397.00,223.00,130.00,165.00,104.00,35.00,APPROVED
KS: WICHITA,01/09/2013 08:28:00,,2637.00,1523.00,404.00,227.00,133.00,169.00,106.00,37.00,APPROVED
KS: WICHITA,01/09/2013 09:28:00,,2619.00,1512.00,398.00,231.00,131.00,167.00,109.00,38.00,APPROVED
KS: WICHITA,01/09/2013 10:28:00,,2619.00,1511.00,403.00,232.00,135.00,166.00,110.00,38.00,APPROVED
KS: WICHITA,01/09/2013 11:28:00,,2672.00,1559.00,413.00,237.00,138.00,172.00,111.00,39.00,APPROVED
KS: WICHITA,01/09/2013 12:28:00,,2783.00,1637.00,427.00,254.00,144.00,181.00,112.00,38.00,APPROVED
KS: WICHITA,01/09/2013 13:29:00,,2765.00,1644.00,429.00,258.00,145.00,180.00,111.00,39.00,APPROVED
KS: WICHITA,01/09/2013 14:29:00,,2696.00,1618.00,420.00,252.00,140.00,178.00,111.00,39.00,APPROVED
KS: WICHITA,01/09/2013 15:29:00,,2598.00,1535.00,404.00,242.00,135.00,171.00,109.00,38.00,APPROVED
KS: WICHITA,01/09/2013 16:29:00,,2576.00,1527.00,408.00,236.00,134.00,171.00,105.00,37.00,APPROVED
KS: WICHITA,01/09/2013 17:29:00,,2515.00,1467.00,396.00,222.00,128.00,162.00,100.00,36.00,APPROVED
KS: WICHITA,01/09/2013 18:30:00,,2330.00,1329.00,368.00,199.00,122.00,155.00,95.00,34.00,APPROVED
KS: WICHITA,01/09/2013 19:30:00,,2240.00,1273.00,364.00,187.00,118.00,153.00,89.00,33.00,APPROVED
KS: WICHITA,01/09/2013 20:30:00,,2177.00,1226.00,354.00,180.00,118.00,151.00,87.00,34.00,APPROVED
KS: WICHITA,01/09/2013 21:30:00,,2123.00,1207.00,351.00,181.00,117.00,146.00,88.00,33.00,APPROVED
KS: WICHITA,01/09/2013 22:30:00,,2081.00,1168.00,341.00,177.00,115.00,148.00,87.00,32.00,APPROVED
KS: WICHITA,01/09/2013 23:31:00,,2133.00,1205.00,348.00,180.00,117.00,145.00,88.00,34.00,APPROVED
KS: WICHITA,01/10/2013 00:31:00,,2219.00,1230.00,357.00,181.00,119.00,150.00,90.00,32.00,APPROVED
KS: WICHITA,01/10/2013 01:31:00,,2293.00,1288.00,365.00,192.00,121.00,153.00,90.00,33.00,APPROVED
KS: WICHITA,01/10/2013 02:31:00,,2334.00,1302.00,368.00,194.00,122.00,154.00,97.00,34.00,APPROVED
KS: WICHITA,01/10/2013 03:31:00,,2324.00,1322.00,370.00,195.00,125.00,153.00,95.00,34.00,APPROVED
KS: WICHITA,01/10/2013 04:32:00,,2325.00,1323.00,372.00,197.00,127.00,154.00,96.00,33.00,APPROVED
KS: WICHITA,01/10/2013 05:32:00,,2273.00,1268.00,360.00,191.00,119.00,152.00,92.00,33.00,APPROVED
KS: WICHITA,01/10/2013 06:32:00,,2214.00,1236.00,348.00,185.00,116.00,148.00,90.00,33.00,APPROVED
KS: WICHITA,01/10/2013 07:32:00,,2254.00,1261.00,359.00,191.00,120.00,152.00,92.00,34.00,APPROVED
KS: WICHITA,01/10/2013 08:32:00,,2289.00,1299.00,362.00,193.00,120.00,150.00,94.00,33.00,APPROVED
KS: WICHITA,01/10/2013 09:33:00,,2309.00,1305.00,368.00,200.00,121.00,149.00,97.00,35.00,APPROVED
KS: WICHITA,01/10/2013 10:33:00,,2374.00,1357.00,377.00,209.00,125.00,154.00,99.00,35.00,APPROVED
KS: WICHITA,01/10/2013 11:33:00,,2338.00,1331.00,373.00,207.00,126.00,156.00,97.00,33.00,APPROVED
KS: WICHITA,01/10/2013 12:33:00,,2361.00,1353.00,374.00,209.00,126.00,157.00,98.00,34.00,APPROVED
KS: WICHITA,01/10/2013 13:34:00,,2438.00,1429.00,398.00,219.00,130.00,169.00,102.00,36.00,APPROVED
KS: WICHITA,01/10/2013 14:34:00,,2351.00,1373.00,390.00,210.00,128.00,162.00,100.00,34.00,APPROVED
KS: WICHITA,01/10/2013 15:34:00,,2349.00,1366.00,382.00,209.00,125.00,160.00,99.00,34.00,APPROVED
KS: WICHITA,01/10/2013 16:34:00,,2404.00,1441.00,405.00,224.00,128.00,169.00,102.00,37.00,APPROVED
KS: WICHITA,01/10/2013 17:34:00,,2200.00,1250.00,352.00,193.00,118.00,145.00,90.00,34.00,APPROVED
KS: WICHITA,01/10/2013 18:35:00,,2112.00,1173.00,334.00,175.00,112.00,140.00,86.00,31.00,APPROVED
KS: WICHITA,01/10/2013 19:35:00,,2081.00,1155.00,324.00,170.00,110.00,135.00,85.00,32.00,APPROVED
KS: WICHITA,01/10/2013 20:35:00,,2054.00,1142.00,327.00,172.00,108.00,135.00,83.00,32.00,APPROVED
KS: WICHITA,01/10/2013 21:35:00,,2029.00,1104.00,325.00,165.00,108.00,135.00,79.00,31.00,APPROVED
KS: WICHITA,01/10/2013 22:35:00,,2045.00,1124.00,321.00,168.00,108.00,135.00,81.00,32.00,APPROVED
KS: WICHITA,01/10/2013 23:36:00,,2173.00,1207.00,347.00,180.00,117.00,150.00,86.00,33.00,APPROVED
KS: WICHITA,01/11/2013 00:36:00,,2250.00,1277.00,372.00,196.00,120.00,159.00,92.00,33.00,APPROVED
KS: WICHITA,01/11/2013 01:36:00,,2400.00,1422.00,411.00,220.00,131.00,176.00,97.00,37.00,APPROVED